Regional Weather Roundup
Issued by NWS

Home | Current Version | Previous Version | Graphics & Text | Print | Product List | Glossary Off
Versions: 1 2 3 4 5 6 7 8 9 10 11 12 13 14 15 16 17 18 19 20 21 22 23 24 25 26 27 28 29 30 31 32 33 34 35 36 37 38 39 40 41 42 43 44 45 46 47 48 49 50

000
ASUS43 KMPX 152010
RWRMN
WEATHER ROUNDUP FOR MINNESOTA
NATIONAL WEATHER SERVICE TWIN CITIES/CHANHASSEN MN
200 PM CST FRI DEC 15 2017


NOTE: "FAIR" INDICATES FEW OR NO CLOUDS BELOW 12,000 FEET WITH NO
SIGNIFICANT WEATHER AND/OR OBSTRUCTIONS TO VISIBILITY. N/A MEANS
CURRENT SKY AND/OR WEATHER CONDITIONS ARE NOT AVAILABLE.

MNZ060>063-068>070-152100-
   Twin Cities Metro

CITY           SKY/WX    TMP DP  RH WIND       PRES   REMARKS
TWIN CITIES    CLOUDY    27  20  75 CALM      29.81F
ST PAUL        CLOUDY    26  18  71 CALM      29.83F
CRYSTAL        CLOUDY    25  15  66 CALM      29.80F
BLAINE         CLOUDY    25  18  74 CALM      29.80F
LAKEVILLE        N/A     27  25  93 SW3       29.80F
EDEN PRAIRIE   CLOUDY    28  21  75 S3        29.79F
SOUTH ST PAUL  CLOUDY    26  18  71 CALM      29.81F
LAKE ELMO      CLOUDY    27  18  69 CALM      29.82F
$$
MNZ001>005-007-008-013>017-022>024-027-028-152100-
   Northwest Minnesota

CITY           SKY/WX    TMP DP  RH WIND       PRES   REMARKS
BEMIDJI        CLOUDY    13   8  79 S7        29.72F WCI   3
HALLOCK        CLOUDY    18  16  93 SE14      29.70F WCI   4
ROSEAU         FLURRIES  14   9  79 S5        29.73F WCI   6
WARROAD        LGT SNOW  12   7  79 CALM      29.74F
THIEF RVR FALL FLURRIES  16  12  84 SE9       29.71F WCI   4
CROOKSTON      CLOUDY    19  16  86 S9        29.72F FOG     WCI   9
FOSSTON        CLOUDY    16  12  86 SE5       29.71F WCI   9
DETROIT LAKES  CLOUDY    23  18  80 S8        29.71F WCI  14
MOORHEAD       CLOUDY    25  19  80 S12       29.72F WCI  14
PARK RAPIDS    CLOUDY    17  10  74 SE5       29.72F WCI  10
MAHNOMEN       CLOUDY    19  15  82 SE5       29.70F WCI  13
$$
MNZ006-009>011-018-025>026-152100-
   North Central Minnesota

CITY           SKY/WX    TMP DP  RH WIND       PRES   REMARKS
BAUDETTE       CLOUDY     9   4  80 SE5       29.73F WCI   1
FLAG ISLAND    FLURRIES   7   1  78 SE6       29.74F WCI  -3
INTL FALLS     CLOUDY    11   2  67 NW3       29.76F
WASKISH        CLOUDY    12   7  79 SE5       29.73F WCI   4
BIG FORK       PTSUNNY   12   3  67 CALM      29.74F
LONGVILLE      CLOUDY    16   9  73 CALM      29.74F
GRAND RAPIDS   CLOUDY    15   5  64 SW5       29.76F WCI   8
CRANE LAKE     CLOUDY     9   1  72 CALM      29.79F
ORR            CLOUDY     9   1  72 CALM      29.73S
COOK           CLOUDY    10   3  72 W5        29.76S WCI   2
WALKER         CLOUDY    12   7  80 CALM      29.73F
$$
MNZ012-019>021-037-152100-
   Northeast Minnesota

CITY           SKY/WX    TMP DP  RH WIND       PRES   REMARKS
DULUTH         CLOUDY    12   4  70 W7        29.74F WCI   1
ELY            MOSUNNY    9   1  72 NW6       29.74F WCI  -1
HIBBING        SUNNY     10   2  69 CALM      29.75F
EVELETH        SUNNY     12   1  59 SW3       29.76S
DULUTH HARBOR  CLOUDY    16   7  67 W6        29.82F WCI   7
TWO HARBORS    CLOUDY    19   7  58 W3        29.74F
SILVER BAY     SUNNY     16   3  57 W5        29.75F WCI   9
GRAND MARAIS     N/A     15   0  51 CALM      29.80F
G MARAIS ARPRT SUNNY      7  -4  61 W7        29.69S WCI  -5
$$
MNZ029>031-032-039>041-046>048-054>057-064-152100-
   West Central Minnesota

CITY           SKY/WX    TMP DP  RH WIND       PRES   REMARKS
FERGUS FALLS   CLOUDY    25  21  86 S9        29.76F WCI  15
WHEATON        PTSUNNY   28  27  93 S8        29.74F WCI  20
MORRIS         CLOUDY    28  27  93 S8        29.73F WCI  20
ALEXANDRIA     CLOUDY    25  20  81 S7        29.73F WCI  17
ELBOW LAKE     CLOUDY    27  24  89 S9        29.73F WCI  18
WADENA         CLOUDY    19  14  79 CALM      29.73F
GLENWOOD       MOSUNNY   27  21  80 S8        29.74F WCI  18
APPLETON       CLOUDY    32  28  86 S6        29.74F WCI  26
BENSON         CLOUDY    30  27  86 S7        29.76F WCI  23
ORTONVILLE     CLOUDY    32  28  86 SE7       29.72F WCI  26
MADISON        CLOUDY    39  32  75 SW7       29.73F
WILLMAR        CLOUDY    30  28  93 SE7       29.77F WCI  23
$$
MNZ033>034-036-042>043-049>051-058-059-152100-
   Central Minnesota

CITY           SKY/WX    TMP DP  RH WIND       PRES   REMARKS
ST CLOUD       CLOUDY    23  17  78 SE6       29.78F WCI  16
SAUK CENTRE    CLOUDY    24  16  73 SE3       29.76F
PAYNESVILLE    CLOUDY    27  22  84 SE5       29.77F WCI  21
AITKIN         CLOUDY    18   9  68 CALM      29.74F
PINE RIVER     CLOUDY    16  10  79 CALM      29.78F
BRAINERD       CLOUDY    20  11  68 CALM      29.75F
STAPLES        CLOUDY    19  10  68 CALM      29.74F
LITTLE FALLS   CLOUDY    23  10  58 CALM      29.77F
LITCHFIELD     CLOUDY    28  25  86 SE3       29.77F
BUFFALO        CLOUDY    24  17  74 CALM      29.80F
MAPLE LAKE     CLOUDY    26  20  78 SE3       29.80F
HUTCHINSON     CLOUDY    29  26  90 SE5       29.79F WCI  24
$$
MNZ037-044-045-052-053-152100-
   East Central Minnesota

CITY           SKY/WX    TMP DP  RH WIND       PRES   REMARKS
PRINCETON      CLOUDY    25  16  68 CALM      29.78F
MORA           MOSUNNY   21  12  68 S3        29.79F
CAMBRIDGE      CLOUDY    21  10  63 S3        29.80F
RUSH CITY      CLOUDY    20  10  66 CALM      29.81F
MOOSE LAKE     CLOUDY    19   9  63 CALM      29.75F
HINCKLEY       CLOUDY    21  12  68 SW6       29.79F WCI  14
CLOQUET        CLOUDY    16   3  57 W6        29.75F WCI   7
MCGREGOR       CLOUDY    19  10  68 CALM      29.75F
$$
MNZ071>073-080-081-089-090-097-098-152100-
   Southwest Minnesota

CITY           SKY/WX    TMP DP  RH WIND       PRES   REMARKS
MONTEVIDEO     CLOUDY    36  30  80 CALM      29.74F
GRANITE FALLS  CLOUDY    39  31  72 S8        29.76F
CANBY          MOSUNNY   39  29  67 SW9       29.73F
MARSHALL       MOSUNNY   40  27  59 W13       29.75F
REDWOOD FALLS  MOSUNNY   37  29  72 SW8       29.76F
OLIVIA         CLOUDY    34  32  93 SE5       29.75F WCI  30
PIPESTONE      PTSUNNY   37  27  65 W10       29.74F
WINDOM           N/A    N/A N/A N/A SW10      29.77F
WORTHINGTON    PTSUNNY   39  26  59 W14       29.77F
JACKSON        MOSUNNY   37  27  65 SW13      29.78F
SLAYTON        CLOUDY    37  28  70 SW13      29.75F
$$
MNZ065>067-074>077-082>085-091>093-152100-
   South Central Minnesota

CITY           SKY/WX    TMP DP  RH WIND       PRES   REMARKS
MANKATO        CLOUDY    36  29  75 NE3       29.79F
NEW ULM        PTSUNNY   36  27  69 SW5       29.78F
ST JAMES       MOSUNNY   39  28  65 SW7       29.78F
FAIRMONT       SUNNY     40  27  59 W14       29.79F
GLENCOE        CLOUDY    28  28 100 CALM      29.79F
FARIBAULT      CLOUDY    28  27  93 CALM      29.80F
OWATONNA       CLOUDY    32  28  86 CALM      29.79F
WASECA         CLOUDY    32  30  93 SW7       29.80F WCI  26
ALBERT LEA     CLOUDY    34  27  75 W8        29.79F WCI  27
$$
MNZ078>079-086>088-094>096-152100-
   Southeast Minnesota

CITY           SKY/WX    TMP DP  RH WIND       PRES   REMARKS
ROCHESTER      CLOUDY    30  28  92 W7        29.79F WCI  23
RED WING       CLOUDY    28  19  69 W3        29.81F
STANTON        CLOUDY    28  25  88 CALM      29.80F
DODGE CENTER   CLOUDY    30  27  86 W7        29.79F WCI  23
WINONA         CLOUDY    32  27  80 W5        29.83F WCI  27
AUSTIN         CLOUDY    34  27  75 W9        29.80F WCI  26
PRESTON        CLOUDY    31  27  84 W9        29.81S WCI  23
$$
ABBREVIATIONS USED IN REMARKS
   TC - TEMPERATURES IN CELSIUS
  WCI - WIND CHILL INDEX
   HX - HEAT INDEX
  VSB - VISIBILITY
$$




USA.gov is the U.S. government's official web portal to all federal, state and local government web resources and services.